CST,Max TemperatureF,Mean TemperatureF,Min TemperatureF,Max Dew PointF,MeanDew PointF,Min DewpointF,Max Humidity, Mean Humidity, Min Humidity, Max Sea Level PressureIn, Mean Sea Level PressureIn, Min Sea Level PressureIn, Max VisibilityMiles, Mean VisibilityMiles, Min VisibilityMiles, Max Wind SpeedMPH, Mean Wind SpeedMPH, Max Gust SpeedMPH,PrecipitationIn, CloudCover, Events, WindDirDegrees
2012-11-1,75,61,46,53,43,30,93,58,23,30.06,30.00,29.95,10,10,9,15,3,28,0.00,1,,332
2012-11-2,81,62,43,64,52,41,96,68,39,30.08,30.03,29.98,10,10,3,16,5,20,0.00,0,,236
2012-11-3,86,70,54,64,59,54,100,70,40,30.12,30.07,30.02,10,5,0,6,3,7,0.00,2,Fog,254
2012-11-4,82,70,57,64,59,55,100,73,45,30.08,30.03,29.97,10,10,5,13,5,17,0.00,0,,269
2012-11-5,75,62,49,56,45,34,93,58,23,30.07,29.99,29.89,10,10,10,10,4,14,0.03,2,Rain,40
2012-11-6,63,57,50,55,50,45,100,78,55,29.98,29.93,29.88,10,8,0,15,6,20,0.30,6,Fog-Rain-Thunderstorm,297
2012-11-7,65,56,46,48,43,35,100,68,36,30.09,29.99,29.91,10,10,7,18,6,23,T,3,Rain,300
2012-11-8,67,53,39,45,40,36,96,64,32,30.22,30.16,30.09,10,10,8,9,3,14,0.00,0,,338
2012-11-9,72,55,37,47,40,35,93,60,27,30.32,30.25,30.21,10,10,10,8,1,15,0.00,0,,30
2012-11-10,75,56,37,47,41,36,92,60,27,30.35,30.29,30.25,10,10,10,8,1,12,0.00,0,,157
2012-11-11,78,61,43,55,49,41,93,66,39,30.34,30.28,30.24,10,10,10,13,3,20,0.00,1,,145
2012-11-12,78,66,53,62,58,52,93,75,56,30.26,30.22,30.17,10,9,2,15,5,21,T,4,,249
2012-11-13,69,57,44,53,40,25,96,58,20,30.30,30.23,30.18,10,10,10,15,6,18,T,3,Rain,357
2012-11-14,61,54,47,55,51,37,100,83,65,30.25,30.22,30.19,10,8,2,14,7,16,0.01,8,Rain,43
2012-11-15,55,52,49,52,48,44,100,89,77,30.26,30.22,30.18,10,8,3,12,8,16,0.00,8,,31
2012-11-16,63,52,40,47,45,39,96,76,56,30.28,30.24,30.19,10,9,5,14,5,18,0.00,6,,54
2012-11-17,66,52,38,44,40,35,100,72,43,30.32,30.28,30.24,10,10,8,18,7,22,0.00,2,,34
2012-11-18,73,60,47,47,41,35,80,59,38,30.31,30.26,30.21,10,10,10,17,6,22,0.00,1,,36
2012-11-19,71,57,42,53,48,42,93,69,45,30.27,30.20,30.14,10,10,10,13,3,17,0.00,2,,9
2012-11-20,71,62,53,57,54,50,100,76,51,30.18,30.12,30.06,10,7,0,8,2,13,0.01,6,Fog-Rain,335
2012-11-21,76,61,45,52,47,44,100,68,35,30.16,30.12,30.07,10,6,0,14,3,22,0.00,0,Fog,347
2012-11-22,75,58,41,48,44,40,96,65,33,30.24,30.19,30.15,10,10,9,9,1,12,0.00,0,,31
2012-11-23,75,59,42,51,46,39,96,65,33,30.25,30.16,30.09,10,9,4,8,4,9,0.00,1,,274
2012-11-24,63,49,35,52,35,24,86,55,23,30.21,30.14,30.09,10,10,10,15,6,18,0.00,0,,332
2012-11-25,65,47,28,32,27,18,92,55,17,30.24,30.17,30.12,10,10,10,7,1,16,0.00,0,,233
2012-11-26,67,49,31,49,39,28,92,66,39,30.26,30.19,30.16,10,10,10,6,1,13,0.00,1,,137
2012-11-27,60,56,52,59,55,49,100,92,83,30.22,30.15,30.10,10,6,2,14,3,17,0.85,8,Rain,59
2012-11-28,57,49,40,56,49,38,100,79,57,30.37,30.30,30.21,10,6,0,12,5,16,0.00,5,Fog-Rain,1
2012-11-29,65,51,36,51,43,35,100,78,56,30.40,30.34,30.29,10,7,0,9,3,13,0.00,4,Fog,40
2012-11-30,74,62,49,55,51,48,93,70,46,30.32,30.27,30.22,10,9,5,14,3,17,0.00,5,,81